Location: Newark
(31.5350°N, 35.0986°E)
Time: 07:00:53
(UTC+00:00)

SR - Pass Details

Date: 23 October 2019
Orbit: 574 x 882 km, 66.7° (Epoch: 13 November)

Event Time Altitude Azimuth Distance (km) Brightness Sun altitude
Rises 17:25:50 0° 172° (S) 2,944 - -31.8°
Reaches altitude 10° 17:28:25 10° 157° (SSE) 2,089 - -32.4°
Maximum altitude 17:32:08 23° 106° (ESE) 1,472 - -33.2°
Drops below altitude 10° 17:36:08 10° 54° (NE) 2,258 - -34.0°
Sets 17:39:02 0° 41° (NE) 3,247 - -34.6°
